Skagway, AK

6:18 AM AKST on February 24, 2017 (GMT -0900)
Skagway

Weather History for PAGY - September, 2013

Change the Weather History Date:

Monday, September 23, 2013

  Actual Average Record
Temperature  
Mean Temperature 50 °F -  
Max Temperature 54 °F 52 °F 68 °F (1965)
Min Temperature 46 °F 42 °F 24 °F (1970)
Degree Days  
Heating Degree Days 15    
Moisture  
Dew Point 45 °F    
Average Humidity 87    
Maximum Humidity 93    
Minimum Humidity 64    
Precipitation  
Precipitation 0.05 in - - ()
Sea Level Pressure  
Sea Level Pressure 29.36 in    
Wind  
Wind Speed 1 mph (South)    
Max Wind Speed 16 mph    
Max Gust Speed -    
Visibility 8 miles    
Events Rain    
Averages and records for this station are not official NWS values.
T = Trace of Precipitation, MM = Missing Value Source: NWS Daily Summary

Daily Weather History Graph

Daily Weather History Graph

Search for Another Location

Airport or City:

Trip Planner

Search our weather history database for the weather conditions in past years. The results will help you decide how hot, cold, wet, or windy it might be!

Date:

Astronomy

Sep. 23, 2013 Rise Set
Actual Time 6:49 AM AKDT 6:56 PM AKDT
Civil Twilight 6:08 AM AKDT 7:37 PM AKDT
Nautical Twilight 5:18 AM AKDT 8:26 PM AKDT
Astronomical Twilight 4:25 AM AKDT 9:18 PM AKDT
Moon 8:21 PM AKDT (9/23) 12:26 PM AKDT (9/23)
Length of Visible Light 13h 29m
Length of Day
12h 07m
Waning Gibbous, 80% of the Moon is Illuminated
Sep 23
Waning Gibbous
Sep 26
Last Quarter
Oct 4
New
Oct 11
First Quarter
Oct 18
Full

Hourly Weather History & Observations

Time (AKDT) Temp. Dew Point Humidity Pressure Visibility Wind Dir Wind Speed Gust Speed Precip Events Conditions
12:30 AM 48.2 °F 46.4 °F 93% 29.18 in 10.0 mi Calm Calm - N/A   Overcast
12:53 AM 48.0 °F 46.0 °F 93% 29.19 in 10.0 mi Calm Calm - N/A   Overcast
1:53 AM 48.0 °F 45.0 °F 89% 29.20 in 4.0 mi NE 3.5 mph - N/A   Overcast
2:53 AM 48.0 °F 46.0 °F 93% 29.22 in 10.0 mi Calm Calm - N/A   Overcast
3:53 AM 46.9 °F 45.0 °F 93% 29.24 in 3.0 mi Calm Calm - 0.01 in Rain Light Rain
4:00 AM 46.4 °F 44.6 °F 93% 29.25 in 4.0 mi Calm Calm - 0.00 in   Overcast
4:18 AM 46.4 °F 44.6 °F 93% 29.25 in 4.0 mi Calm Calm - 0.00 in Rain Light Rain
4:35 AM 46.4 °F 44.6 °F 93% 29.26 in 1.8 mi Calm Calm - 0.00 in   Overcast
4:43 AM 46.4 °F 44.6 °F 93% 29.26 in 1.0 mi Calm Calm - 0.00 in   Overcast
4:53 AM 46.9 °F 45.0 °F 93% 29.26 in 1.0 mi Calm Calm - 0.00 in Rain Light Rain
5:00 AM 46.4 °F 44.6 °F 93% 29.26 in 2.0 mi Calm Calm - 0.00 in Rain Light Rain
5:04 AM 48.2 °F 44.6 °F 87% 29.26 in 4.0 mi Calm Calm - 0.01 in Rain Light Rain
5:23 AM 46.4 °F 44.6 °F 93% 29.26 in 7.0 mi Calm Calm - 0.03 in Rain Light Rain
5:42 AM 48.2 °F 46.4 °F 93% 29.28 in 10.0 mi Calm Calm - 0.03 in Rain Light Rain
5:53 AM 46.9 °F 45.0 °F 93% 29.29 in 10.0 mi Calm Calm - 0.03 in Rain Light Rain
6:03 AM 46.4 °F 44.6 °F 93% 29.28 in 4.0 mi Calm Calm - 0.00 in   Overcast
6:14 AM 46.4 °F 44.6 °F 93% 29.29 in 8.0 mi Calm Calm - 0.00 in Rain Light Rain
6:37 AM 48.2 °F 44.6 °F 87% 29.30 in 10.0 mi Calm Calm - 0.01 in Rain Light Rain
6:53 AM 48.0 °F 45.0 °F 89% 29.31 in 10.0 mi NE 3.5 mph - 0.01 in   Overcast
7:53 AM 48.0 °F 46.0 °F 93% 29.32 in 8.0 mi Calm Calm - 0.00 in   Mostly Cloudy
8:53 AM 48.9 °F 46.9 °F 93% 29.35 in 10.0 mi NNE 3.5 mph - 0.00 in Rain Light Rain
9:53 AM 50.0 °F 48.0 °F 93% 29.35 in 10.0 mi Calm Calm - 0.00 in   Partly Cloudy
10:53 AM 52.0 °F 48.0 °F 86% 29.37 in 10.0 mi Calm Calm - N/A   Clear
11:53 AM 50.0 °F 46.9 °F 89% 29.38 in 7.0 mi Calm Calm - N/A   Scattered Clouds
12:53 PM 50.0 °F 46.9 °F 89% 29.39 in 8.0 mi SSW 3.5 mph - N/A   Overcast
1:53 PM 52.0 °F 45.0 °F 77% 29.42 in 10.0 mi Calm Calm - N/A   Overcast
2:53 PM 54.0 °F 42.1 °F 64% 29.44 in 10.0 mi South 11.5 mph - N/A   Overcast
3:53 PM 53.1 °F 42.1 °F 66% 29.46 in 10.0 mi SSW 15.0 mph - N/A   Overcast
4:53 PM 53.1 °F 41.0 °F 64% 29.49 in 10.0 mi SSW 16.1 mph - N/A   Overcast
5:53 PM 53.1 °F 42.1 °F 66% 29.52 in 10.0 mi SSW 10.4 mph - N/A   Overcast
6:53 PM 52.0 °F 43.0 °F 71% 29.55 in 10.0 mi Calm Calm - N/A   Overcast
7:53 PM 50.0 °F 44.1 °F 80% 29.57 in 10.0 mi NNE 4.6 mph - N/A   Overcast
8:53 PM 50.0 °F 45.0 °F 83% 29.61 in 10.0 mi Calm Calm - N/A   Overcast
9:53 PM 48.0 °F 44.1 °F 86% 29.64 in 10.0 mi Calm Calm - N/A   Mostly Cloudy
10:53 PM 46.9 °F 44.1 °F 90% 29.66 in 10.0 mi Calm Calm - N/A   Overcast
11:53 PM 46.9 °F 44.1 °F 90% 29.68 in 10.0 mi Calm Calm - N/A   Overcast